This site uses a module created by best online poker sites.

BSB police reports endind November 9, 2018

Print
"11/08/2018","00:15","218CR0028845","ASSIST OTHER AGENCY","ASSIST OTHER AGENCY","I90 MM 211 EB","",""
"11/08/2018","00:33","218CR0028846","DISTURBANCE","DISTURBANCE","1125 S MAIN 3RD FLOOR","",""
"11/08/2018","01:51","218CR0028847","HARASSMENT","HARASSMENT","1125 S MAIN #315","",""
"11/08/2018","02:04","218CR0028848","WELFARE CHECK","WELFARE CHECK","710 SILVERBOW HOMES","",""
"11/08/2018","02:50","218CR0028849","CITIZEN AID","CITIZEN AID","400 S CLARK ST","",""
"11/08/2018","03:18","218CR0028850","DISTURBANCE-NOISE","DISTURBANCE-NOISE","2600 BLK HARVARD","",""
"11/08/2018","03:50","218CR0028851","DISTURBANCE","DISTURBANCE","840 W SILVER","",""
"11/08/2018","03:54","218CR0028852","SUSPICIOUS ACTIVITY","SUSPICIOUS ACTIVITY","3827 HARRISON/SPLASH N DASH","",""
"11/08/2018","05:52","218CR0028853","T/S","T/S","2900 BLK HARRISON","",""
"11/08/2018","06:27","218CR0028854","DETENTION BUSINESS","DETENTION BUSINESS","************","",""
"11/08/2018","06:30","218CR0028855","VANDALISM/CRIMINAL MISCHIEF","VANDALISM/CRIMINAL MISCHIEF","1736 LONGFELLOW #2","",""
"11/08/2018","07:16","218CR0028856","ACCIDENT","ACCIDENT","LEXINGTON AVE BRIDGE","",""
"11/08/2018","07:43","218CR0028857","SUSPICIOUS ACTIVITY","SUSPICIOUS ACTIVITY","700 BLK W BROADWAY","",""
"11/08/2018","07:48","218CR0028858","ALARM - BURGLARY","ALARM - BURGLARY","************","",""
"11/08/2018","07:54","218CR0028859","HIT AND RUN","HIT AND RUN","1130 MARYLAND","",""
"11/08/2018","07:56","218CR0028860","BUSINESS CHECK","BUSINESS CHECK","58 W PARK","",""
"11/08/2018","07:57","218CR0028861","ACCIDENT","ACCIDENT","OREGON AVE BRIDGE","",""
"11/08/2018","08:12","218CR0028862","ACCIDENT-MHP","ACCIDENT-MHP","I90 AND I15 NISSLER JUNCTION","",""
"11/08/2018","08:38","218CR0028863","WELFARE CHECK","WELFARE CHECK","2600 GRAND AVE","",""
"11/08/2018","08:42","218CR0028864","MEDICAL - EMERGENCY","MEDICAL - EMERGENCY","100 GARDENS WAY","",""
"11/08/2018","08:43","218CR0028865","DOMESTIC ABUSE","PFMA - MINOR INJ/PHYSICAL CONT","1159 W GOLD","",""
"11/08/2018","08:48","218CR0028866","DETENTION BUSINESS","DETENTION BUSINESS","************","",""
"11/08/2018","08:54","218CR0028867","MEDICAL - EMERGENCY","MEDICAL - EMERGENCY","2300 MASSACHUSETTS","",""
"11/08/2018","08:55","218CR0028868","MEDICAL - EMERGENCY","MEDICAL - EMERGENCY","","",""
"11/08/2018","09:00","218CR0028869","CITIZEN AID","CITIZEN AID","628 1/2 W GRANITE","",""
"11/08/2018","09:03","218CR0028870","ASSAULT","ASSAULT, SIMPLE","246 E MERCURY ST","ARREST(s) MADE",""
"11/08/2018","09:19","218CR0028871","ACCIDENT","ACCIDENT","GRANITE ST AND HENRY ST","",""
"11/08/2018","09:35","218CR0028872","CIVIL STANDBY","CIVIL STANDBY","2315 S DRIVE","",""
"11/08/2018","09:48","218CR0028873","ACCIDENT- INJURY(MHP)","ACCIDENT- INJURY(MHP)","I90 MM219 WB","",""
"11/08/2018","09:52","218CR0028875","DETENTION BUSINESS","DETENTION BUSINESS","************","",""
"11/08/2018","09:52","218CR0028874","ALARM - FIRE","ALARM - FIRE","131 S WYOMING","",""
"11/08/2018","10:10","218CR0028876","CIVIL PAPER SERVICE","CIVIL PAPER SERVICE","315 S JACKSON","",""
"11/08/2018","10:10","218CR0028877","LED BUSINESS","LED BUSINESS","155 W GRANITE","",""
"11/08/2018","10:19","218CR0028878","BUSINESS CHECK","BUSINESS CHECK","58 W PARK ST PARKING GARAGE","",""
"11/08/2018","10:21","218CR0028879","JUVENILE MISC","JUVENILE MISC","************","",""
"11/08/2018","10:23","218CR0028880","JUVENILE RUNAWAY","UNGOVERNABLE JUVENILE","23 E LAPLATTE ST","",""
"11/08/2018","10:26","218CR0028881","CITIZEN AID","CITIZEN AID","DAKOTA AND SILVER","",""
"11/08/2018","10:45","218CR0028882","ASSIST OTHER AGENCY","ASSIST OTHER AGENCY","MM234 I90 WB","",""
"11/08/2018","10:53","218CR0028883","CITIZEN AID","CITIZEN AID","665 S WASHINGTON","",""
"11/08/2018","11:08","218CR0028884","JUVENILE MISC","JUVENILE MISC","************","",""
"11/08/2018","11:14","218CR0028885","ACCIDENT","STOP SIGN VIOLATION","COBBAN ST AND OREGON AVE","",""
"11/08/2018","11:16","218CR0028886","WELFARE CHECK","WELFARE CHECK","122005 NISSLER RD","",""
"11/08/2018","11:58","218CR0028887","FRAUD","FRAUD","2065 CAROLINA AV","",""
"11/08/2018","12:04","218CR0028888","CIVIL PAPER SERVICE","CIVIL PAPER SERVICE","1325 KAW APT A","",""
"11/08/2018","12:11","218CR0028889","WANTED PERSON","WANTED PERSON","************","",""
"11/08/2018","12:12","218CR0028890","SUICIDE ATTEMPT/THREAT","SUICIDE ATTEMPT/THREAT","************","",""
"11/08/2018","12:15","218CR0028891","WELFARE CHECK","WELFARE CHECK","518 N MAIN","",""
"11/08/2018","12:28","218CR0028892","ACCIDENT","ACCIDENT","DEWEY AND HILL","",""
"11/08/2018","12:52","218CR0028893","ACCIDENT - INJURY","ACCIDENT - INJURY","I90 234 EB","",""
"11/08/2018","13:04","218CR0028894","ASSIST OTHER AGENCY","ASSIST OTHER AGENCY","I90 MM 233 EB","",""
"11/08/2018","13:07","218CR0028895","STOLEN VEHICLE","STOLEN VEHICLE","155 W QUARTZ","",""
"11/08/2018","13:09","218CR0028896","DETENTION BUSINESS","DETENTION BUSINESS","************","",""
"11/08/2018","13:10","218CR0028897","BUSINESS CHECK","BUSINESS CHECK","3544 HARRISON AVE","",""
"11/08/2018","13:13","218CR0028898","LED BUSINESS","LED BUSINESS","401 S WYOMING ST","",""
"11/08/2018","13:20","218CR0028899","DETENTION BUSINESS","DETENTION BUSINESS","************","",""
"11/08/2018","13:25","218CR0028900","SUSPICIOUS ACTIVITY","POSSESS DRUG PARAPHERNALIA","3700 HARRISON AVE","ARREST(s) MADE",""
"11/08/2018","13:55","218CR0028901","JUVENILE MISC","JUVENILE MISC","************","",""
"11/08/2018","13:58","218CR0028902","WELFARE CHECK","BURGLARY, RESIDENCE","2700 ABERDEEN ST","",""
"11/08/2018","14:14","218CR0028903","ACCIDENT","DRIVE WHILE SUSP. OR REVOKED","2500 BLK OF WALNUT","ARREST(s) MADE",""
"11/08/2018","14:15","218CR0028904","ASSIST OTHER AGENCY","ASSIST OTHER AGENCY","I90 MM 234 EBND","",""
"11/08/2018","14:17","218CR0028905","INFORMATION ONLY","INFORMATION ONLY","1122 LEWISHON","",""
"11/08/2018","14:17","218CR0028906","BURGLARY","BURGLARY","1350 HOLMES","",""
"11/08/2018","14:46","218CR0028907","CIVIL STANDBY","CIVIL STANDBY","50 W BROADWAY#502","",""
"11/08/2018","14:47","218CR0028908","WANTED PERSON","POSSESS DRUG PARAPHERNALIA","1636 LOWELL","ARREST(s) MADE",""
"11/08/2018","14:52","218CR0028909","THEFT","THEFT","225 N ALASKA","",""
"11/08/2018","15:00","218CR0028910","DETENTION BUSINESS","DETENTION BUSINESS","************","",""
"11/08/2018","15:02","218CR0028911","CIVIL PAPER SERVICE","CIVIL PAPER SERVICE","50 W BROADWAY ST #202","",""
"11/08/2018","15:03","218CR0028912","ASSIST OTHER AGENCY","ASSIST OTHER AGENCY","I90 MM 235 EBND","",""
"11/08/2018","15:20","218CR0028913","JUVENILE MISC","JUVENILE MISC","************","",""
"11/08/2018","15:25","218CR0028914","WELFARE CHECK","WELFARE CHECK","220 N WYOMING ST #224","",""
"11/08/2018","15:34","218CR0028915","WELFARE CHECK","WELFARE CHECK","2114 PINE","",""
"11/08/2018","15:36","218CR0028916","ALARM - BURGLARY","ALARM - BURGLARY","************","",""
"11/08/2018","15:45","218CR0028917","MEDICAL - EMERGENCY","MEDICAL - EMERGENCY","603 SLALOM","",""
"11/08/2018","15:53","218CR0028918","ANIMAL COMPLAINT","ANIMAL COMPLAINT","BERKELEY PIT VIEWING STAND","",""
"11/08/2018","15:55","218CR0028919","ASSIST OTHER AGENCY","ASSIST OTHER AGENCY","I15 MM 113 SBND","",""
"11/08/2018","16:00","218CR0028920","LED BUSINESS","LED BUSINESS","155 W QUARTZ","",""
"11/08/2018","16:19","218CR0028921","MEDICAL - EMERGENCY","MEDICAL - EMERGENCY","1 E LA PLATTE","",""
"11/08/2018","16:28","218CR0028922","ANIMAL COMPLAINT","ANIMAL COMPLAINT","1014 W PARK","",""
"11/08/2018","16:34","218CR0028923","HARASSMENT","HARASSMENT","2609 HARRISON","",""
"11/08/2018","16:47","218CR0028924","DETENTION BUSINESS","DETENTION BUSINESS","************","",""
"11/08/2018","16:57","218CR0028925","ALL OTHER","ALL OTHER","1125 S MAIN ST","",""
"11/08/2018","17:05","218CR0028926","LOST OR STOLEN PROPERTY","LOST OR STOLEN PROPERTY","2500 MASSACHUSETTES","",""
"11/08/2018","17:09","218CR0028927","ALL OTHER","ALL OTHER","2119 JOHNS AVE","",""
"11/08/2018","17:14","218CR0028928","UNKNOWN PROBLEM","UNKNOWN PROBLEM","932 S UTAH","",""
"11/08/2018","17:19","218CR0028929","THEFT","THEFT","3541 HARRISON AVE","",""
"11/08/2018","17:37","218CR0028930","ASSIST OTHER AGENCY","ASSIST OTHER AGENCY","I90 MM 237 EBND","",""
"11/08/2018","17:55","218CR0028931","ALARM - MEDICAL","ALARM - MEDICAL","************","",""
"11/08/2018","18:42","218CR0028932","UNWANTED PERSON","UNWANTED PERSON","************","",""
"11/08/2018","19:02","218CR0028933","JUVENILE MISC","JUVENILE MISC","************","",""
"11/08/2018","19:16","218CR0028934","BUSINESS CHECK","BUSINESS CHECK","HARRISON AT MAGIC DIAMOND CASI","",""
"11/08/2018","20:16","218CR0028935","SUSPICIOUS ACTIVITY","SUSPICIOUS ACTIVITY","BERKLEY PIT VEIWING","",""
"11/08/2018","20:23","218CR0028936","SUSPICIOUS ACTIVITY","SUSPICIOUS ACTIVITY","3901 HARRISON AVE","",""
"11/08/2018","20:44","218CR0028937","ASSIST OTHER AGENCY","ASSIST OTHER AGENCY","I15 MM112","",""
"11/08/2018","20:52","218CR0028938","SUSPICIOUS ACTIVITY","SUSPICIOUS ACTIVITY","2900 HARRISON AVE","",""
"11/08/2018","21:37","218CR0028939","STOLEN VEHICLE","MOTOR VEHICLE THEFT","500 S EMMETT","",""
"11/08/2018","21:51","218CR0028940","SUSPICIOUS ACTIVITY","SUSPICIOUS ACTIVITY","1001 EMPIRE ST","",""
"11/08/2018","22:02","218CR0028941","ALL OTHER","ALL OTHER","654 S IDAHO","",""
"11/08/2018","22:18","218CR0028942","ALL OTHER","POSSESSION OF DANGEROUS DRUGS","122001 W BROWNS GULCH RD","ARREST(s) MADE",""
"11/08/2018","23:09","218CR0028943","SUSPICIOUS ACTIVITY","SUSPICIOUS ACTIVITY","2930 EAGLE","",""
"11/08/2018","23:46","218CR0028944","FIRE - STRUCTURE","FIRE - STRUCTURE","915 W PARK ST","",""
"11/09/2018","00:08","218CR0028945","UNWANTED PERSON","UNWANTED PERSON","************","",""
"11/09/2018","00:44","218CR0028946","BUSINESS CHECK","BUSINESS CHECK","1370 HARRISON","",""
"11/09/2018","00:53","218CR0028947","SUSPICIOUS ACTIVITY","SUSPICIOUS ACTIVITY","932 WAKASHA # C","",""
"11/09/2018","01:50","218CR0028948","SUSPICIOUS ACTIVITY","SUSPICIOUS ACTIVITY","3235 HARRISON AVE","",""
"11/09/2018","02:34","218CR0028949","BUSINESS CHECK","BUSINESS CHECK","531 S MONTANA","",""
"11/09/2018","03:13","218CR0028950","ALARM - BURGLARY","ALARM - BURGLARY","************","",""
"11/09/2018","04:46","218CR0028951","SUSPICIOUS ACTIVITY","SUSPICIOUS ACTIVITY","3132 KEOKUK","",""
"11/09/2018","07:33","218CR0028952","TRAFFIC","TRAFFIC","MONTANA ST AND ROWE RD","",""
"11/09/2018","07:57","218CR0028953","CIVIL PAPER SERVICE","CIVIL PAPER SERVICE","1228 RACCOON WAY","",""
"11/09/2018","07:58","218CR0028954","CHILD ABUSE","CHILD ABUSE","************","",""
 
Wednesday the 14th. Affiliate Marketing.
Copyright 2012

©